CW9451 Weather Reports


Display with metric or nautical units.
time (UTC)temp
F
wind
direction
speed
MPH
gust
MPH
rain 1hr
in
rain 24hr
in
rain mn
in
humidity
%
barometer
mb
20260902173904 76 0.0 0.0 0.00 0.00 0.00 62 1018.9
20260902172903 77 0.0 0.0 0.00 0.00 0.00 63 1019.2
20260902171904 76 0.0 0.0 0.00 0.00 0.00 63 1019.2
20260902170904 75 0.0 0.0 0.00 0.00 0.00 63 1018.8
20260902165904 77 0.0 0.0 0.00 0.00 0.00 61 1019.3
20260902164904 76 0.0 0.0 0.00 0.00 0.00 63 1019.3
20260902163904 76 0.0 0.0 0.00 0.00 0.00 62 1019.3
20260902162905 74 0.0 0.0 0.00 0.00 0.00 62 1018.8
20260902161904 76 0.0 0.0 0.00 0.00 0.00 62 1019.1
20260902160905 76 0.0 0.0 0.00 0.00 0.00 59 1019.1
20260902155904 75 0.0 0.0 0.00 0.00 0.00 64 1019.1
20260902154904 75 0.0 0.0 0.00 0.00 0.00 64 1019.2
20260902153908 75 0.0 0.0 0.00 0.00 0.00 63 1019.2
20260902151904 75 0.0 0.0 0.00 0.00 0.00 65 1019.2
20260902150904 75 0.0 0.0 0.00 0.00 0.00 64 1019.5
20260902145905 76 0.0 0.0 0.00 0.00 0.00 63 1019.5
20260902144904 75 0.0 0.0 0.00 0.00 0.00 66 1019.9
20260902143904 75 0.0 0.0 0.00 0.00 0.00 69 1020.1
20260902142905 75 0.0 0.0 0.00 0.00 0.00 68 1020.0
20260902141904 75 0.0 0.0 0.00 0.00 0.00 70 1020.3
20260902140904 75 0.0 0.0 0.00 0.00 0.00 71 1020.5
20260902135904 73 0.0 0.0 0.00 0.00 0.00 74 1020.3
20260902134903 74 0.0 0.0 0.00 0.00 0.00 76 1020.6
20260902133904 71 0.0 0.0 0.00 0.00 0.00 84 1020.8
20260902132905 70 0.0 0.0 0.00 0.00 0.00 84 1020.5
20260902131905 70 0.0 0.0 0.00 0.00 0.00 87 1020.9
20260902130904 69 0.0 0.0 0.00 0.00 0.00 90 1020.7
20260902125904 69 0.0 0.0 0.00 0.00 0.00 90 1020.5
20260902124904 70 0.0 0.0 0.00 0.00 0.00 85 1020.6
20260902123904 71 0.0 0.0 0.00 0.00 0.00 87 1021.0
20260902122903 69 0.0 0.0 0.00 0.00 0.00 89 1020.9
20260902121903 68 0.0 0.0 0.00 0.00 0.00 89 1020.8
20260902120904 68 0.0 0.0 0.00 0.00 0.00 90 1020.9
20260902115904 69 0.0 0.0 0.00 0.00 0.00 89 1021.0
20260902114904 69 0.0 0.0 0.00 0.00 0.00 91 1021.3
20260902113905 68 0.0 0.0 0.00 0.00 0.00 91 1021.3
20260902112905 68 0.0 0.0 0.00 0.00 0.00 95 1021.5
20260902111904 68 0.0 0.0 0.00 0.00 0.00 10 1021.6
20260902110904 66 0.0 0.0 0.00 0.00 0.00 10 1021.5
20260902105904 66 0.0 0.0 0.00 0.00 0.00 10 1021.6
20260902104904 67 0.0 0.0 0.00 0.00 0.00 10 1021.7
20260902103907 67 0.0 0.0 0.00 0.00 0.00 10 1021.7
20260902102905 67 0.0 0.0 0.00 0.00 0.00 10 1021.9
20260902101904 67 0.0 0.0 0.00 0.00 0.00 10 1021.9
20260902100905 67 0.0 0.0 0.00 0.00 0.00 99 1022.0
20260902095904 67 0.0 0.0 0.00 0.00 0.00 10 1022.1
20260902094904 67 0.0 0.0 0.00 0.00 0.00 10 1022.1
20260902093905 66 0.0 0.0 0.00 0.00 0.00 10 1022.1
20260902092905 66 0.0 0.0 0.00 0.00 0.00 10 1022.1
20260902091904 66 0.0 0.0 0.00 0.00 0.00 10 1022.3
20260902090905 65 0.0 0.0 0.00 0.00 0.00 10 1022.2
20260902085904 64 0.0 0.0 0.00 0.00 0.00 10 1022.2
20260902084904 64 0.0 0.0 0.00 0.00 0.00 10 1022.0
20260902083905 64 0.0 0.0 0.00 0.00 0.00 10 1022.0
20260902082904 64 0.0 0.0 0.00 0.00 0.00 10 1022.2
20260902081905 63 0.0 0.0 0.00 0.00 0.00 10 1022.3
20260902080904 63 0.0 0.0 0.00 0.00 0.00 10 1022.4
20260902075905 63 0.0 0.0 0.00 0.00 0.00 10 1022.4
20260902074905 62 0.0 0.0 0.00 0.00 0.00 10 1022.4
20260902073904 62 0.0 0.0 0.00 0.00 0.00 10 1022.4
20260902072905 62 0.0 0.0 0.00 0.00 0.00 10 1022.5
20260902071905 62 0.0 0.0 0.00 0.00 0.00 10 1022.5
20260902070904 61 0.0 0.0 0.00 0.00 0.00 10 1022.4
20260902065905 61 0.0 0.0 0.00 0.00 0.00 10 1022.2
20260902064904 60 0.0 0.0 0.00 0.00 0.00 10 1022.4
20260902063904 60 0.0 0.0 0.00 0.00 0.00 10 1022.4
20260902062904 60 0.0 0.0 0.00 0.00 0.00 10 1022.3
20260902061909 59 0.0 0.0 0.00 0.00 0.00 10 1022.3
20260902055909 59 0.0 0.0 0.00 0.00 0.00 10 1022.3
20260902053904 58 0.0 0.0 0.00 0.00 0.00 10 1022.4
20260902052904 58 0.0 0.0 0.00 0.00 0.00 10 1022.3
20260902051903 58 0.0 0.0 0.00 0.00 0.00 10 1022.3
20260902050903 58 0.0 0.0 0.00 0.00 0.00 10 1022.1
20260902045903 59 0.0 0.0 0.00 0.00 0.00 10 1022.1
20260902044904 58 0.0 0.0 0.00 0.00 0.00 10 1021.8
20260902043905 58 0.0 0.0 0.00 0.00 0.00 10 1021.8
20260902042904 58 0.0 0.0 0.00 0.00 0.00 10 1022.0
20260902041905 58 0.0 0.0 0.00 0.00 0.00 10 1022.0
20260902040911 58 0.0 0.0 0.00 0.00 0.00 10 1022.0
20260902034904 58 0.0 0.0 0.00 0.00 0.00 10 1022.0
20260902033908 58 0.0 0.0 0.00 0.00 0.00 10 1021.9
20260902031904 58 0.0 0.0 0.00 0.00 0.00 99 1021.7
20260902030904 58 0.0 0.0 0.00 0.00 0.00 99 1021.8
20260902025904 59 0.0 0.0 0.00 0.00 0.00 10 1022.1
20260902024904 59 0.0 0.0 0.00 0.00 0.00 10 1022.0
20260902023905 59 0.0 0.0 0.00 0.00 0.00 99 1022.1
20260902022909 58 0.0 0.0 0.00 0.00 0.00 99 1022.1
20260902020903 58 0.0 0.0 0.00 0.00 0.00 97 1021.7
20260902015903 58 0.0 0.0 0.00 0.00 0.00 97 1021.6
20260902014904 58 0.0 0.0 0.00 0.00 0.00 97 1021.6
20260902013905 58 0.0 0.0 0.00 0.00 0.00 96 1021.5
20260902012909 59 0.0 0.0 0.00 0.00 0.00 95 1021.4
20260902005904 59 0.0 0.0 0.00 0.00 0.00 96 1021.4
20260902004904 59 0.0 0.0 0.00 0.00 0.00 96 1021.5
20260902003909 60 0.0 0.0 0.00 0.00 0.00 97 1021.7
20260902000904 60 0.0 0.0 0.00 0.00 0.00 98 1021.9
20260901235904 60 0.0 0.0 0.00 0.00 0.00 98 1021.8
20260901234904 60 0.0 0.0 0.00 0.00 0.00 99 1021.8
20260901233946 61 0.0 0.0 0.00 0.00 0.00 99 1021.9
20260901231908 61 0.0 0.0 0.00 0.00 0.00 99 1021.9
20260901225903 61 0.0 0.0 0.00 0.00 0.00 10 1021.9
20260901224904 61 0.0 0.0 0.00 0.00 0.00 10 1021.8
20260901223905 61 0.0 0.0 0.00 0.00 0.00 10 1021.8
20260901222904 62 0.0 0.0 0.00 0.00 0.00 10 1021.7
20260901221904 62 0.0 0.0 0.00 0.00 0.00 10 1021.6
20260901220903 62 0.0 0.0 0.00 0.00 0.00 10 1021.7
20260901215904 62 0.0 0.0 0.00 0.00 0.00 10 1021.7
20260901214909 62 0.0 0.0 0.00 0.00 0.00 10 1021.7
20260901211904 62 0.0 0.0 0.00 0.00 0.00 10 1021.7
20260901210903 63 0.0 0.0 0.00 0.00 0.00 10 1021.8
20260901205903 63 0.0 0.0 0.00 0.00 0.00 10 1021.7
20260901204908 63 0.0 0.0 0.00 0.00 0.00 10 1021.8
20260901202904 63 0.0 0.0 0.00 0.00 0.00 10 1021.7
20260901201904 63 0.0 0.0 0.00 0.00 0.00 10 1021.6
20260901200934 63 0.0 0.0 0.00 0.00 0.00 10 1021.6
20260901195905 64 0.0 0.0 0.00 0.00 0.00 10 1021.5
20260901194904 64 0.0 0.0 0.00 0.00 0.00 10 1021.5
20260901193905 64 0.0 0.0 0.00 0.00 0.00 10 1021.6
20260901192906 64 0.0 0.0 0.00 0.00 0.00 10 1021.6
20260901191908 64 0.0 0.0 0.00 0.00 0.00 10 1021.5
20260901185904 65 0.0 0.0 0.00 0.00 0.00 10 1021.4
20260901184904 65 0.0 0.0 0.00 0.00 0.00 10 1021.4
20260901183909 65 0.0 0.0 0.00 0.00 0.00 99 1021.1
20260901181904 66 0.0 0.0 0.00 0.00 0.00 99 1020.8
20260901180905 67 0.0 0.0 0.00 0.00 0.00 98 1020.7
20260901175909 67 0.0 0.0 0.00 0.00 0.00 96 1020.5